Location: Laura�t
(43.9341°N, 0.2497°E)
Time: 23:04:40
(UTC+00:00)

USA 234 - Pass Details

Date: 03 March 2021
Orbit: 1102 x 1105 km, 123.0° (Epoch: 16 April)

Event Time Altitude Azimuth Distance (km) Brightness Sun altitude
Exits shadow 21:27:19 41° 346° (NNW) 1,556 4.2 -38.3°
Maximum altitude 21:27:42 41° 337° (NNW) 1,547 4.2 -38.3°
Drops below altitude 10° 21:33:44 10° 270° (W) 2,961 6.0 -39.2°
Sets 21:36:20 0° 264° (W) 3,917 6.7 -39.6°
